Piarco, Trinidad And Tobago

8:52 AM AST on April 22, 2018 (GMT -0400)
Piarco International

Weather History for TTPP - November, 2013

Change the Weather History Date:

Saturday, November 30, 2013

  Actual Average Record
Temperature  
Mean Temperature 79 °F -  
Max Temperature 86 °F 85 °F 91 °F (2015)
Min Temperature 72 °F 72 °F 68 °F (2005)
Cooling Degree Days 14    
Growing Degree Days 29 (Base 50)    
Moisture  
Dew Point 72 °F    
Average Humidity 76    
Maximum Humidity 94    
Minimum Humidity 50    
Precipitation  
Precipitation 0.00 in 0.20 in - ()
Sea Level Pressure  
Sea Level Pressure 29.83 in    
Wind  
Wind Speed 4 mph ()    
Max Wind Speed 23 mph    
Max Gust Speed -    
Visibility 7.4 miles    
Events Rain    
Averages and records for this station are not official NWS values.
T = Trace of Precipitation, MM = Missing Value Source: Averaged Metar Reports

Daily Weather History Graph

Daily Weather History Graph

Search for Another Location

Airport or City:

Astronomy

Nov. 30, 2013 Rise Set
Actual Time 6:07 AM AST 5:40 PM AST
Civil Twilight 5:44 AM AST 6:03 PM AST
Nautical Twilight 5:18 AM AST 6:29 PM AST
Astronomical Twilight 4:52 AM AST 6:55 PM AST
Moon 3:37 AM AST (11/30) 3:41 PM AST (11/30)
Length of Visible Light 12h 18m
Length of Day
11h 33m
Waning Crescent, 7% of the Moon is Illuminated
Nov 30
Waning Crescent
Dec 2
New
Dec 9
First Quarter
Dec 17
Full
Dec 25
Last Quarter

Hourly Weather History & Observations

Time (AST) Temp. Heat Index Dew Point Humidity Pressure Visibility Wind Dir Wind Speed Gust Speed Precip Events Conditions
12:00 AM - - - N/A% 29.83 in 6.2 mi Calm Calm - N/A   Partly Cloudy
1:00 AM 75.2 °F - 71.6 °F 89% 29.83 in 6.2 mi Calm Calm - N/A   Partly Cloudy
2:00 AM 75 °F - 72 °F 87% 29.83 in 12 mi Calm Calm - -   Scattered Clouds
2:00 AM 75.2 °F - 71.6 °F 89% 29.80 in 6.2 mi Calm Calm - N/A   Partly Cloudy
3:00 AM 75.2 °F - 73.4 °F 94% 29.80 in 6.2 mi Calm Calm - N/A   Partly Cloudy
4:00 AM 73.4 °F - 71.6 °F 94% 29.80 in 6.2 mi Calm Calm - N/A   Partly Cloudy
5:00 AM 74 °F - 72 °F 91% 29.84 in 12 mi Calm Calm - -   Scattered Clouds
5:00 AM 73.4 °F - 71.6 °F 94% 29.83 in 6.2 mi Calm Calm - N/A   Partly Cloudy
6:00 AM 73.4 °F - 71.6 °F 94% 29.83 in 6.2 mi Calm Calm - N/A   Scattered Clouds
7:00 AM 73.4 °F - 71.6 °F 94% 29.86 in 6.2 mi Calm Calm - N/A   Partly Cloudy
8:00 AM 80 °F - 73 °F 73% 29.90 in 16 mi Calm Calm - -   Scattered Clouds
8:00 AM 80.6 °F 85.4 °F 73.4 °F 79% 29.89 in 6.2 mi Calm Calm - N/A   Scattered Clouds
9:00 AM 84.2 °F 89.6 °F 71.6 °F 66% 29.89 in 6.2 mi East 13.8 mph - N/A   Partly Cloudy
10:00 AM 86.0 °F 90.4 °F 69.8 °F 58% 29.89 in 6.2 mi ESE 13.8 mph - N/A   Scattered Clouds
11:00 AM 86 °F - 70 °F 50% 29.90 in 11 mi ESE 13.8 mph - -   Partly Cloudy
11:00 AM 86.0 °F 90.4 °F 69.8 °F 58% 29.89 in 6.2 mi ESE 13.8 mph - N/A   Scattered Clouds
12:00 PM 86.0 °F 90.4 °F 69.8 °F 58% 29.86 in 6.2 mi East 23.0 mph - N/A   Mostly Cloudy
1:00 PM 86.0 °F 90.4 °F 69.8 °F 58% 29.83 in 6.2 mi East 15.0 mph - N/A   Scattered Clouds
2:00 PM 86 °F - 71 °F 53% 29.82 in 11 mi ENE 9.2 mph - -   Partly Cloudy
2:00 PM 86.0 °F 91.8 °F 71.6 °F 62% 29.80 in 6.2 mi ENE 9.2 mph - N/A   Scattered Clouds
3:00 PM 80.6 °F 84.6 °F 71.6 °F 74% 29.80 in 6.2 mi East 15.0 mph - N/A Rain Light Rain Showers
4:00 PM 82.4 °F 87.2 °F 71.6 °F 70% 29.77 in 6.2 mi ESE 8.1 mph - N/A   Mostly Cloudy
5:00 PM 82 °F - 71 °F 61% 29.80 in 10 mi East 11.5 mph - -   Mostly Cloudy
5:00 PM 82.4 °F 87.2 °F 71.6 °F 70% 29.80 in 6.2 mi East 11.5 mph - N/A   Mostly Cloudy
6:00 PM 80.6 °F 84.6 °F 71.6 °F 74% 29.80 in 6.2 mi East 9.2 mph - N/A   Mostly Cloudy
7:00 PM 80.6 °F 84.6 °F 71.6 °F 74% 29.80 in 6.2 mi Calm Calm - N/A   Mostly Cloudy
8:00 PM 77 °F - 74 °F 87% 29.84 in 9 mi East 11.5 mph - - Rain Light Rain
8:00 PM 77.0 °F - 73.4 °F 89% 29.83 in 6.2 mi East 11.5 mph - N/A Rain Light Rain
9:00 PM 78.8 °F - 73.4 °F 83% 29.83 in 6.2 mi Calm Calm - N/A   Mostly Cloudy
10:00 PM 78.8 °F - 71.6 °F 78% 29.83 in 6.2 mi Calm Calm - N/A   Scattered Clouds
11:00 PM 78.8 °F - 71.6 °F 78% 29.83 in 6.2 mi Calm Calm - N/A   Mostly Cloudy